Year,Month,Day,Hour,Minute,Value (Times are PST for temperature in C)
2019,06,25,00,00,11.30
2019,06,25,00,01,11.20
2019,06,25,00,02,11.20
2019,06,25,00,03,11.20
2019,06,25,00,04,11.20
2019,06,25,00,05,11.10
2019,06,25,00,06,11.10
2019,06,25,00,07,11.10
2019,06,25,00,08,11.10
2019,06,25,00,09,11.10
2019,06,25,00,10,11.10
2019,06,25,00,11,11.10
2019,06,25,00,12,11.10
2019,06,25,00,13,11.10
2019,06,25,00,14,11.10
2019,06,25,00,15,11.00
2019,06,25,00,16,11.00
2019,06,25,00,17,11.00
2019,06,25,00,18,10.90
2019,06,25,00,19,10.90
2019,06,25,00,20,10.90
2019,06,25,00,21,10.90
2019,06,25,00,22,10.90
2019,06,25,00,23,10.90
2019,06,25,00,24,10.80
2019,06,25,00,25,10.80
2019,06,25,00,26,10.80
2019,06,25,00,27,10.80
2019,06,25,00,28,10.80
2019,06,25,00,29,10.80
2019,06,25,00,30,10.80
2019,06,25,00,31,10.80
2019,06,25,00,32,10.80
2019,06,25,00,33,10.80
2019,06,25,00,34,10.80
2019,06,25,00,35,10.80
2019,06,25,00,36,10.80
2019,06,25,00,37,10.80
2019,06,25,00,38,10.80
2019,06,25,00,39,10.80
2019,06,25,00,40,10.80
2019,06,25,00,41,10.80
2019,06,25,00,42,10.90
2019,06,25,00,43,10.90
2019,06,25,00,44,10.90
2019,06,25,00,45,10.90
2019,06,25,00,46,10.90
2019,06,25,00,47,10.90
2019,06,25,00,48,10.90
2019,06,25,00,49,10.90
2019,06,25,00,50,10.90
2019,06,25,00,51,10.80
2019,06,25,00,52,10.80
2019,06,25,00,53,10.80
2019,06,25,00,54,10.80
2019,06,25,00,55,10.80
2019,06,25,00,56,10.70
2019,06,25,00,57,10.70
2019,06,25,00,58,10.70
2019,06,25,00,59,10.70
2019,06,25,01,00,10.70
2019,06,25,01,01,10.70
2019,06,25,01,02,10.60
2019,06,25,01,03,10.60
2019,06,25,01,04,10.60
2019,06,25,01,05,10.60
2019,06,25,01,06,10.60
2019,06,25,01,07,10.50
2019,06,25,01,08,10.50
2019,06,25,01,09,10.40
2019,06,25,01,10,10.40
2019,06,25,01,11,10.40
2019,06,25,01,12,10.40
2019,06,25,01,13,10.40
2019,06,25,01,14,10.40
2019,06,25,01,15,10.40
2019,06,25,01,16,10.40
2019,06,25,01,17,10.40
2019,06,25,01,18,10.30
2019,06,25,01,19,10.30
2019,06,25,01,20,10.30
2019,06,25,01,21,10.30
2019,06,25,01,22,10.30
2019,06,25,01,23,10.30
2019,06,25,01,24,10.30
2019,06,25,01,25,10.30
2019,06,25,01,26,10.30
2019,06,25,01,27,10.20
2019,06,25,01,28,10.20
2019,06,25,01,29,10.20
2019,06,25,01,30,10.20
2019,06,25,01,31,10.20
2019,06,25,01,32,10.20
2019,06,25,01,33,10.10
2019,06,25,01,34,10.10
2019,06,25,01,35,10.10
2019,06,25,01,36,10.10
2019,06,25,01,37,10.00
2019,06,25,01,38,10.00
2019,06,25,01,39,10.00
2019,06,25,01,40,10.00
2019,06,25,01,41,9.90
2019,06,25,01,42,9.90
2019,06,25,01,43,9.90
2019,06,25,01,44,9.90
2019,06,25,01,45,9.90
2019,06,25,01,46,9.90
2019,06,25,01,47,9.80
2019,06,25,01,48,9.80
2019,06,25,01,49,9.80
2019,06,25,01,50,9.80
2019,06,25,01,51,9.80
2019,06,25,01,52,9.80
2019,06,25,01,53,9.70
2019,06,25,01,54,9.70
2019,06,25,01,55,9.70
2019,06,25,01,56,9.70
2019,06,25,01,57,9.70
2019,06,25,01,58,9.70
2019,06,25,01,59,9.70
2019,06,25,02,00,9.70
2019,06,25,02,01,9.70
2019,06,25,02,02,9.70
2019,06,25,02,03,9.70
2019,06,25,02,04,9.70
2019,06,25,02,05,9.70
2019,06,25,02,06,9.70
2019,06,25,02,07,9.70
2019,06,25,02,08,9.70
2019,06,25,02,09,9.70
2019,06,25,02,10,9.70
2019,06,25,02,11,9.70
2019,06,25,02,12,9.70
2019,06,25,02,13,9.70
2019,06,25,02,14,9.70
2019,06,25,02,15,9.70
2019,06,25,02,16,9.70
2019,06,25,02,17,9.70
2019,06,25,02,18,9.70
2019,06,25,02,19,9.70
2019,06,25,02,20,9.70
2019,06,25,02,21,9.70
2019,06,25,02,22,9.70
2019,06,25,02,23,9.70
2019,06,25,02,24,9.70
2019,06,25,02,25,9.70
2019,06,25,02,26,9.70
2019,06,25,02,27,9.70
2019,06,25,02,28,9.70
2019,06,25,02,29,9.70
2019,06,25,02,30,9.70
2019,06,25,02,31,9.70
2019,06,25,02,32,9.70
2019,06,25,02,33,9.70
2019,06,25,02,34,9.70
2019,06,25,02,35,9.60
2019,06,25,02,36,9.60
2019,06,25,02,37,9.60
2019,06,25,02,38,9.60
2019,06,25,02,39,9.60
2019,06,25,02,40,9.60
2019,06,25,02,41,9.60
2019,06,25,02,42,9.60
2019,06,25,02,43,9.60
2019,06,25,02,44,9.60
2019,06,25,02,45,9.60
2019,06,25,02,46,9.60
2019,06,25,02,47,9.60
2019,06,25,02,48,9.60
2019,06,25,02,49,9.60
2019,06,25,02,50,9.60
2019,06,25,02,51,9.60
2019,06,25,02,52,9.60
2019,06,25,02,53,9.60
2019,06,25,02,54,9.60
2019,06,25,02,55,9.60
2019,06,25,02,56,9.60
2019,06,25,02,57,9.60
2019,06,25,02,58,9.60
2019,06,25,02,59,9.60
2019,06,25,03,00,9.60
2019,06,25,03,01,9.60
2019,06,25,03,02,9.60
2019,06,25,03,03,9.60
2019,06,25,03,04,9.60
2019,06,25,03,05,9.60
2019,06,25,03,06,9.60
2019,06,25,03,07,9.60
2019,06,25,03,08,9.60
2019,06,25,03,09,9.60
2019,06,25,03,10,9.60
2019,06,25,03,11,9.60
2019,06,25,03,12,9.60
2019,06,25,03,13,9.60
2019,06,25,03,14,9.60
2019,06,25,03,15,9.60
2019,06,25,03,16,9.60
2019,06,25,03,17,9.60
2019,06,25,03,18,9.60
2019,06,25,03,19,9.60
2019,06,25,03,20,9.60
2019,06,25,03,21,9.60
2019,06,25,03,22,9.60
2019,06,25,03,23,9.60
2019,06,25,03,24,9.60
2019,06,25,03,25,9.50
2019,06,25,03,26,9.60
2019,06,25,03,27,9.50
2019,06,25,03,28,9.50
2019,06,25,03,29,9.50
2019,06,25,03,30,9.50
2019,06,25,03,31,9.50
2019,06,25,03,32,9.40
2019,06,25,03,33,9.40
2019,06,25,03,34,9.40
2019,06,25,03,35,9.40
2019,06,25,03,36,9.40
2019,06,25,03,37,9.40
2019,06,25,03,38,9.30
2019,06,25,03,39,9.30
2019,06,25,03,40,9.30
2019,06,25,03,41,9.30
2019,06,25,03,42,9.30
2019,06,25,03,43,9.30
2019,06,25,03,44,9.30
2019,06,25,03,45,9.30
2019,06,25,03,46,9.30
2019,06,25,03,47,9.30
2019,06,25,03,48,9.30
2019,06,25,03,49,9.30
2019,06,25,03,50,9.30
2019,06,25,03,51,9.30
2019,06,25,03,52,9.30
2019,06,25,03,53,9.30
2019,06,25,03,54,9.30
2019,06,25,03,55,9.30
2019,06,25,03,56,9.30
2019,06,25,03,57,9.30
2019,06,25,03,58,9.30
2019,06,25,03,59,9.30
2019,06,25,04,00,9.30
2019,06,25,04,01,9.30
2019,06,25,04,02,9.30
2019,06,25,04,03,9.30
2019,06,25,04,04,9.30
2019,06,25,04,05,9.30
2019,06,25,04,06,9.30
2019,06,25,04,07,9.30
2019,06,25,04,08,9.30
2019,06,25,04,09,9.30
2019,06,25,04,10,9.30
2019,06,25,04,11,9.30
2019,06,25,04,12,9.30
2019,06,25,04,13,9.30
2019,06,25,04,14,9.30
2019,06,25,04,15,9.30
2019,06,25,04,16,9.30
2019,06,25,04,17,9.20
2019,06,25,04,18,9.20
2019,06,25,04,19,9.20
2019,06,25,04,20,9.20
2019,06,25,04,21,9.20
2019,06,25,04,22,9.20
2019,06,25,04,23,9.20
2019,06,25,04,24,9.20
2019,06,25,04,25,9.10
2019,06,25,04,26,9.10
2019,06,25,04,27,9.10
2019,06,25,04,28,9.10
2019,06,25,04,29,9.10
2019,06,25,04,30,9.10
2019,06,25,04,31,9.10
2019,06,25,04,32,9.10
2019,06,25,04,33,9.10
2019,06,25,04,34,9.10
2019,06,25,04,35,9.00
2019,06,25,04,36,9.00
2019,06,25,04,37,9.00
2019,06,25,04,38,9.00
2019,06,25,04,39,9.00
2019,06,25,04,40,9.00
2019,06,25,04,41,9.00
2019,06,25,04,42,9.00
2019,06,25,04,43,9.00
2019,06,25,04,44,9.00
2019,06,25,04,45,9.00
2019,06,25,04,46,9.00
2019,06,25,04,47,9.00
2019,06,25,04,48,8.90
2019,06,25,04,49,8.90
2019,06,25,04,50,8.90
2019,06,25,04,51,8.90
2019,06,25,04,52,8.90
2019,06,25,04,53,8.90
2019,06,25,04,54,8.90
2019,06,25,04,55,8.90
2019,06,25,04,56,8.90
2019,06,25,04,57,8.90
2019,06,25,04,58,8.90
2019,06,25,04,59,8.90
2019,06,25,05,00,8.90
2019,06,25,05,01,8.90
2019,06,25,05,02,8.90
2019,06,25,05,03,8.90
2019,06,25,05,04,8.90
2019,06,25,05,05,8.90
2019,06,25,05,06,8.90
2019,06,25,05,07,8.90
2019,06,25,05,08,8.90
2019,06,25,05,09,8.90
2019,06,25,05,10,8.90
2019,06,25,05,11,8.90
2019,06,25,05,12,8.90
2019,06,25,05,13,8.90
2019,06,25,05,14,8.90
2019,06,25,05,15,8.90
2019,06,25,05,16,8.80
2019,06,25,05,17,8.80
2019,06,25,05,18,8.80
2019,06,25,05,19,8.80
2019,06,25,05,20,8.80
2019,06,25,05,21,8.80
2019,06,25,05,22,8.80
2019,06,25,05,23,8.80
2019,06,25,05,24,8.80
2019,06,25,05,25,8.80
2019,06,25,05,26,8.80
2019,06,25,05,27,8.70
2019,06,25,05,28,8.70
2019,06,25,05,29,8.70
2019,06,25,05,30,8.70
2019,06,25,05,31,8.70
2019,06,25,05,32,8.70
2019,06,25,05,33,8.70
2019,06,25,05,34,8.70
2019,06,25,05,35,8.70
2019,06,25,05,36,8.70
2019,06,25,05,37,8.70
2019,06,25,05,38,8.70
2019,06,25,05,39,8.70
2019,06,25,05,40,8.70
2019,06,25,05,41,8.70
2019,06,25,05,42,8.70
2019,06,25,05,43,8.70
2019,06,25,05,44,8.70
2019,06,25,05,45,8.70
2019,06,25,05,46,8.70
2019,06,25,05,47,8.70
2019,06,25,05,48,8.70
2019,06,25,05,49,8.70
2019,06,25,05,50,8.80
2019,06,25,05,51,8.80
2019,06,25,05,52,8.80
2019,06,25,05,53,8.80
2019,06,25,05,54,8.80
2019,06,25,05,55,8.80
2019,06,25,05,56,8.80
2019,06,25,05,57,8.80
2019,06,25,05,58,8.80
2019,06,25,05,59,8.80
2019,06,25,06,00,8.80
2019,06,25,06,01,8.80
2019,06,25,06,02,8.80
2019,06,25,06,03,8.80
2019,06,25,06,04,8.80
2019,06,25,06,05,8.80
2019,06,25,06,06,8.80
2019,06,25,06,07,8.80
2019,06,25,06,08,8.80
2019,06,25,06,09,8.90
2019,06,25,06,10,8.90
2019,06,25,06,11,8.90
2019,06,25,06,12,8.90
2019,06,25,06,13,8.90
2019,06,25,06,14,8.90
2019,06,25,06,15,8.90
2019,06,25,06,16,8.90
2019,06,25,06,17,8.90
2019,06,25,06,18,9.00
2019,06,25,06,19,9.00
2019,06,25,06,20,9.00
2019,06,25,06,21,9.00
2019,06,25,06,22,9.00
2019,06,25,06,23,9.10
2019,06,25,06,24,9.10
2019,06,25,06,25,9.10
2019,06,25,06,26,9.10
2019,06,25,06,27,9.10
2019,06,25,06,28,9.10
2019,06,25,06,29,9.20
2019,06,25,06,30,9.20
2019,06,25,06,31,9.20
2019,06,25,06,32,9.30
2019,06,25,06,33,9.30
2019,06,25,06,34,9.40
2019,06,25,06,35,9.40
2019,06,25,06,36,9.50
2019,06,25,06,37,9.60
2019,06,25,06,38,9.70
2019,06,25,06,39,9.70
2019,06,25,06,40,9.80
2019,06,25,06,41,9.90
2019,06,25,06,42,9.90
2019,06,25,06,43,10.00
2019,06,25,06,44,10.10
2019,06,25,06,45,10.10
2019,06,25,06,46,10.20
2019,06,25,06,47,10.30
2019,06,25,06,48,10.30
2019,06,25,06,49,10.40
2019,06,25,06,50,10.60
2019,06,25,06,51,10.70
2019,06,25,06,52,10.80
2019,06,25,06,53,10.90
2019,06,25,06,54,11.00
2019,06,25,06,55,11.00
2019,06,25,06,56,11.10
2019,06,25,06,57,11.20
2019,06,25,06,58,11.30
2019,06,25,06,59,11.30
2019,06,25,07,00,11.30
2019,06,25,07,01,11.40
2019,06,25,07,02,11.40
2019,06,25,07,03,11.40
2019,06,25,07,04,11.50
2019,06,25,07,05,11.50
2019,06,25,07,06,11.60
2019,06,25,07,07,11.60
2019,06,25,07,08,11.60
2019,06,25,07,09,11.50
2019,06,25,07,10,11.50
2019,06,25,07,11,11.40
2019,06,25,07,12,11.40
2019,06,25,07,13,11.40
2019,06,25,07,14,11.40
2019,06,25,07,15,11.40
2019,06,25,07,16,11.40
2019,06,25,07,17,11.40
2019,06,25,07,18,11.40
2019,06,25,07,19,11.40
2019,06,25,07,20,11.40
2019,06,25,07,21,11.40
2019,06,25,07,22,11.50
2019,06,25,07,23,11.60
2019,06,25,07,24,11.60
2019,06,25,07,25,11.60
2019,06,25,07,26,11.60
2019,06,25,07,27,11.70
2019,06,25,07,28,11.70
2019,06,25,07,29,11.70
2019,06,25,07,30,11.80
2019,06,25,07,31,11.80
2019,06,25,07,32,11.80
2019,06,25,07,33,11.90
2019,06,25,07,34,12.00
2019,06,25,07,35,12.10
2019,06,25,07,36,12.20
2019,06,25,07,37,12.20
2019,06,25,07,38,12.30
2019,06,25,07,39,12.30
2019,06,25,07,40,12.30
2019,06,25,07,41,12.30
2019,06,25,07,42,12.30
2019,06,25,07,43,12.30
2019,06,25,07,44,12.30
2019,06,25,07,45,12.30
2019,06,25,07,46,12.30
2019,06,25,07,47,12.30
2019,06,25,07,48,12.30
2019,06,25,07,49,12.30
2019,06,25,07,50,12.30
2019,06,25,07,51,12.30
2019,06,25,07,52,12.30
2019,06,25,07,53,12.30
2019,06,25,07,54,12.30
2019,06,25,07,55,12.40
2019,06,25,07,56,12.40
2019,06,25,07,57,12.50
2019,06,25,07,58,12.50
2019,06,25,07,59,12.50
2019,06,25,08,00,12.50
2019,06,25,08,01,12.60
2019,06,25,08,02,12.50
2019,06,25,08,03,12.50
2019,06,25,08,04,12.50
2019,06,25,08,05,12.50
2019,06,25,08,06,12.40
2019,06,25,08,07,12.40
2019,06,25,08,08,12.40
2019,06,25,08,09,12.50
2019,06,25,08,10,12.50
2019,06,25,08,11,12.50
2019,06,25,08,12,12.50
2019,06,25,08,13,12.60
2019,06,25,08,14,12.60
2019,06,25,08,15,12.70
2019,06,25,08,16,12.70
2019,06,25,08,17,12.80
2019,06,25,08,18,12.80
2019,06,25,08,19,12.80
2019,06,25,08,20,12.80
2019,06,25,08,21,12.80
2019,06,25,08,22,12.90
2019,06,25,08,23,13.00
2019,06,25,08,24,13.00
2019,06,25,08,25,13.10
2019,06,25,08,26,13.10
2019,06,25,08,27,13.10
2019,06,25,08,28,13.20
2019,06,25,08,29,13.20
2019,06,25,08,30,13.30
2019,06,25,08,31,13.40
2019,06,25,08,32,13.40
2019,06,25,08,33,13.50
2019,06,25,08,34,13.50
2019,06,25,08,35,13.60
2019,06,25,08,36,13.60
2019,06,25,08,37,13.60
2019,06,25,08,38,13.70
2019,06,25,08,39,13.70
2019,06,25,08,40,13.70
2019,06,25,08,41,13.70
2019,06,25,08,42,13.70
2019,06,25,08,43,13.70
2019,06,25,08,44,13.70
2019,06,25,08,45,13.80
2019,06,25,08,46,13.80
2019,06,25,08,47,13.90
2019,06,25,08,48,14.00
2019,06,25,08,49,14.00
2019,06,25,08,50,14.10
2019,06,25,08,51,14.10
2019,06,25,08,52,14.20
2019,06,25,08,53,14.20
2019,06,25,08,54,14.20
2019,06,25,08,55,14.20
2019,06,25,08,56,14.20
2019,06,25,08,57,14.10
2019,06,25,08,58,14.10
2019,06,25,08,59,14.10
2019,06,25,09,00,14.10
2019,06,25,09,01,14.10
2019,06,25,09,02,14.20
2019,06,25,09,03,14.20
2019,06,25,09,04,14.30
2019,06,25,09,05,14.40
2019,06,25,09,06,14.40
2019,06,25,09,07,14.50
2019,06,25,09,08,14.50
2019,06,25,09,09,14.60
2019,06,25,09,10,14.60
2019,06,25,09,11,14.70
2019,06,25,09,12,14.70
2019,06,25,09,13,14.70
2019,06,25,09,14,14.80
2019,06,25,09,15,14.80
2019,06,25,09,16,14.90
2019,06,25,09,17,14.90
2019,06,25,09,18,15.00
2019,06,25,09,19,15.00
2019,06,25,09,20,15.10
2019,06,25,09,21,15.20
2019,06,25,09,22,15.20
2019,06,25,09,23,15.20
2019,06,25,09,24,15.20
2019,06,25,09,25,15.30
2019,06,25,09,26,15.40
2019,06,25,09,27,15.40
2019,06,25,09,28,15.40
2019,06,25,09,29,15.40
2019,06,25,09,30,15.50
2019,06,25,09,31,15.50
2019,06,25,09,32,15.60
2019,06,25,09,33,15.80
2019,06,25,09,34,15.80
2019,06,25,09,35,15.80
2019,06,25,09,36,15.80
2019,06,25,09,37,15.80
2019,06,25,09,38,15.90
2019,06,25,09,39,15.90
2019,06,25,09,40,15.90
2019,06,25,09,41,15.80
2019,06,25,09,42,15.80
2019,06,25,09,43,15.80
2019,06,25,09,44,15.80
2019,06,25,09,45,15.80
2019,06,25,09,46,15.80
2019,06,25,09,47,15.80
2019,06,25,09,48,15.80
2019,06,25,09,49,15.80
2019,06,25,09,50,15.90
2019,06,25,09,51,16.00
2019,06,25,09,52,16.00
2019,06,25,09,53,16.10
2019,06,25,09,54,16.20
2019,06,25,09,55,16.20
2019,06,25,09,56,16.30
2019,06,25,09,57,16.30
2019,06,25,09,58,16.30
2019,06,25,09,59,16.40
2019,06,25,10,00,16.40
2019,06,25,10,01,16.40
2019,06,25,10,02,16.40
2019,06,25,10,03,16.50
2019,06,25,10,04,16.60
2019,06,25,10,05,16.60
2019,06,25,10,06,16.60
2019,06,25,10,07,16.70
2019,06,25,10,08,16.70
2019,06,25,10,09,16.80
2019,06,25,10,10,16.80
2019,06,25,10,11,16.80
2019,06,25,10,12,16.80
2019,06,25,10,13,16.90
2019,06,25,10,14,17.00
2019,06,25,10,15,17.10
2019,06,25,10,16,17.20
2019,06,25,10,17,17.20
2019,06,25,10,18,17.20
2019,06,25,10,19,17.20
2019,06,25,10,20,17.20
2019,06,25,10,21,17.30
2019,06,25,10,22,17.40
2019,06,25,10,23,17.60
2019,06,25,10,24,17.70
2019,06,25,10,25,17.90
2019,06,25,10,26,18.00
2019,06,25,10,27,18.20
2019,06,25,10,28,18.30
2019,06,25,10,29,18.30
2019,06,25,10,30,18.30
2019,06,25,10,31,18.30
2019,06,25,10,32,18.20
2019,06,25,10,33,18.20
2019,06,25,10,34,18.10
2019,06,25,10,35,18.10
2019,06,25,10,36,18.10
2019,06,25,10,37,18.00
2019,06,25,10,38,18.00
2019,06,25,10,39,18.10
2019,06,25,10,40,18.20
2019,06,25,10,41,18.20
2019,06,25,10,42,18.20
2019,06,25,10,43,18.20
2019,06,25,10,44,18.20
2019,06,25,10,45,18.10
2019,06,25,10,46,18.10
2019,06,25,10,47,18.10
2019,06,25,10,48,18.10
2019,06,25,10,49,18.10
2019,06,25,10,50,18.10
2019,06,25,10,51,18.20
2019,06,25,10,52,18.20
2019,06,25,10,53,18.20
2019,06,25,10,54,18.20
2019,06,25,10,55,18.20
2019,06,25,10,56,18.30
2019,06,25,10,57,18.30
2019,06,25,10,58,18.30
2019,06,25,10,59,18.40
2019,06,25,11,00,18.50
2019,06,25,11,01,18.60
2019,06,25,11,02,18.70
2019,06,25,11,03,18.80
2019,06,25,11,04,18.90
2019,06,25,11,05,19.00
2019,06,25,11,06,19.10
2019,06,25,11,07,19.10
2019,06,25,11,08,19.10
2019,06,25,11,09,19.10
2019,06,25,11,10,19.10
2019,06,25,11,11,19.20
2019,06,25,11,12,19.20
2019,06,25,11,13,19.30
2019,06,25,11,14,19.30
2019,06,25,11,15,19.40
2019,06,25,11,16,19.50
2019,06,25,11,17,19.50
2019,06,25,11,18,19.50
2019,06,25,11,19,19.50
2019,06,25,11,20,19.50
2019,06,25,11,21,19.50
2019,06,25,11,22,19.50
2019,06,25,11,23,19.50
2019,06,25,11,24,19.60
2019,06,25,11,25,19.60
2019,06,25,11,26,19.60
2019,06,25,11,27,19.60
2019,06,25,11,28,19.60
2019,06,25,11,29,19.60
2019,06,25,11,30,19.70
2019,06,25,11,31,19.80
2019,06,25,11,32,19.90
2019,06,25,11,33,19.90
2019,06,25,11,34,20.00
2019,06,25,11,35,20.00
2019,06,25,11,36,20.10
2019,06,25,11,37,20.10
2019,06,25,11,38,20.10
2019,06,25,11,39,20.10
2019,06,25,11,40,20.20
2019,06,25,11,41,20.20
2019,06,25,11,42,20.20
2019,06,25,11,43,20.20
2019,06,25,11,44,20.20
2019,06,25,11,45,20.20
2019,06,25,11,46,20.20
2019,06,25,11,47,20.30
2019,06,25,11,48,20.30
2019,06,25,11,49,20.30
2019,06,25,11,50,20.40
2019,06,25,11,51,20.50
2019,06,25,11,52,20.50
2019,06,25,11,53,20.70
2019,06,25,11,54,20.70
2019,06,25,11,55,20.80
2019,06,25,11,56,20.80
2019,06,25,11,57,20.80
2019,06,25,11,58,20.80
2019,06,25,11,59,20.80
2019,06,25,12,00,20.80
2019,06,25,12,01,20.80
2019,06,25,12,02,20.90
2019,06,25,12,03,20.90
2019,06,25,12,04,21.00
2019,06,25,12,05,21.10
2019,06,25,12,06,21.20
2019,06,25,12,07,21.20
2019,06,25,12,08,21.10
2019,06,25,12,09,21.10
2019,06,25,12,10,21.00
2019,06,25,12,11,21.00
2019,06,25,12,12,20.90
2019,06,25,12,13,20.80
2019,06,25,12,14,20.80
2019,06,25,12,15,20.80
2019,06,25,12,16,20.90
2019,06,25,12,17,21.00
2019,06,25,12,18,21.00
2019,06,25,12,19,21.00
2019,06,25,12,20,20.90
2019,06,25,12,21,20.90
2019,06,25,12,22,20.90
2019,06,25,12,23,21.00
2019,06,25,12,24,21.10
2019,06,25,12,25,21.10
2019,06,25,12,26,21.10
2019,06,25,12,27,21.00
2019,06,25,12,28,20.90
2019,06,25,12,29,20.90
2019,06,25,12,30,20.90
2019,06,25,12,31,20.90
2019,06,25,12,32,20.80
2019,06,25,12,33,20.80
2019,06,25,12,34,20.80
2019,06,25,12,35,20.80
2019,06,25,12,36,20.80
2019,06,25,12,37,20.80
2019,06,25,12,38,20.80
2019,06,25,12,39,20.80
2019,06,25,12,40,20.90
2019,06,25,12,41,20.90
2019,06,25,12,42,20.90
2019,06,25,12,43,20.90
2019,06,25,12,44,20.90
2019,06,25,12,45,20.80
2019,06,25,12,46,20.70
2019,06,25,12,47,20.70
2019,06,25,12,48,20.60
2019,06,25,12,49,20.60
2019,06,25,12,50,20.70
2019,06,25,12,51,20.70
2019,06,25,12,52,20.80
2019,06,25,12,53,20.80
2019,06,25,12,54,20.90
2019,06,25,12,55,21.00
2019,06,25,12,56,21.10
2019,06,25,12,57,21.10
2019,06,25,12,58,21.10
2019,06,25,12,59,21.00
2019,06,25,13,00,21.00
2019,06,25,13,01,21.00
2019,06,25,13,02,20.90
2019,06,25,13,03,20.90
2019,06,25,13,04,21.00
2019,06,25,13,05,21.00
2019,06,25,13,06,21.10
2019,06,25,13,07,21.10
2019,06,25,13,08,21.10
2019,06,25,13,09,21.10
2019,06,25,13,10,21.10
2019,06,25,13,11,21.10
2019,06,25,13,12,21.10
2019,06,25,13,13,21.10
2019,06,25,13,14,21.10
2019,06,25,13,15,21.10
2019,06,25,13,16,21.20
2019,06,25,13,17,21.20
2019,06,25,13,18,21.30
2019,06,25,13,19,21.30
2019,06,25,13,20,21.30
2019,06,25,13,21,21.30
2019,06,25,13,22,21.20
2019,06,25,13,23,21.20
2019,06,25,13,24,21.20
2019,06,25,13,25,21.20
2019,06,25,13,26,21.10
2019,06,25,13,27,21.10
2019,06,25,13,28,21.10
2019,06,25,13,29,21.10
2019,06,25,13,30,21.10
2019,06,25,13,31,21.10
2019,06,25,13,32,21.10
2019,06,25,13,33,21.10
2019,06,25,13,34,21.10
2019,06,25,13,35,21.10
2019,06,25,13,36,21.20
2019,06,25,13,37,21.20
2019,06,25,13,38,21.30
2019,06,25,13,39,21.40
2019,06,25,13,40,21.40
2019,06,25,13,41,21.40
2019,06,25,13,42,21.40
2019,06,25,13,43,21.40
2019,06,25,13,44,21.40
2019,06,25,13,45,21.40
2019,06,25,13,46,21.50
2019,06,25,13,47,21.60
2019,06,25,13,48,21.70
2019,06,25,13,49,21.80
2019,06,25,13,50,21.90
2019,06,25,13,51,22.00
2019,06,25,13,52,22.00
2019,06,25,13,53,22.00
2019,06,25,13,54,22.00
2019,06,25,13,55,22.10
2019,06,25,13,56,22.10
2019,06,25,13,57,22.10
2019,06,25,13,58,22.10
2019,06,25,13,59,22.10
2019,06,25,14,00,22.20
2019,06,25,14,01,22.40
2019,06,25,14,02,22.50
2019,06,25,14,03,22.60
2019,06,25,14,04,22.60
2019,06,25,14,05,22.70
2019,06,25,14,06,22.70
2019,06,25,14,07,22.80
2019,06,25,14,08,22.80
2019,06,25,14,09,22.80
2019,06,25,14,10,22.70
2019,06,25,14,11,22.50
2019,06,25,14,12,22.30
2019,06,25,14,13,22.20
2019,06,25,14,14,22.00
2019,06,25,14,15,21.90
2019,06,25,14,16,21.80
2019,06,25,14,17,21.80
2019,06,25,14,18,21.70
2019,06,25,14,19,21.70
2019,06,25,14,20,21.70
2019,06,25,14,21,21.70
2019,06,25,14,22,21.80
2019,06,25,14,23,21.80
2019,06,25,14,24,21.90
2019,06,25,14,25,21.90
2019,06,25,14,26,22.00
2019,06,25,14,27,22.00
2019,06,25,14,28,22.00
2019,06,25,14,29,22.00
2019,06,25,14,30,22.00
2019,06,25,14,31,22.00
2019,06,25,14,32,22.00
2019,06,25,14,33,21.90
2019,06,25,14,34,22.00
2019,06,25,14,35,22.00
2019,06,25,14,36,21.90
2019,06,25,14,37,21.90
2019,06,25,14,38,21.90
2019,06,25,14,39,21.90
2019,06,25,14,40,21.80
2019,06,25,14,41,21.80
2019,06,25,14,42,21.80
2019,06,25,14,43,21.70
2019,06,25,14,44,21.70
2019,06,25,14,45,21.70
2019,06,25,14,46,21.70
2019,06,25,14,47,21.70
2019,06,25,14,48,21.70
2019,06,25,14,49,21.70
2019,06,25,14,50,21.70
2019,06,25,14,51,21.70
2019,06,25,14,52,21.60
2019,06,25,14,53,21.60
2019,06,25,14,54,21.50
2019,06,25,14,55,21.40
2019,06,25,14,56,21.30
2019,06,25,14,57,21.30
2019,06,25,14,58,21.30
2019,06,25,14,59,21.20
2019,06,25,15,00,21.20
2019,06,25,15,01,21.10
2019,06,25,15,02,21.10
2019,06,25,15,03,21.10
2019,06,25,15,04,21.20
2019,06,25,15,05,21.20
2019,06,25,15,06,21.30
2019,06,25,15,07,21.30
2019,06,25,15,08,21.30
2019,06,25,15,09,21.40
2019,06,25,15,10,21.40
2019,06,25,15,11,21.40
2019,06,25,15,12,21.40
2019,06,25,15,13,21.50
2019,06,25,15,14,21.50
2019,06,25,15,15,21.50
2019,06,25,15,16,21.50
2019,06,25,15,17,21.60
2019,06,25,15,18,21.60
2019,06,25,15,19,21.70
2019,06,25,15,20,21.70
2019,06,25,15,21,21.60
2019,06,25,15,22,21.60
2019,06,25,15,23,21.60
2019,06,25,15,24,21.50
2019,06,25,15,25,21.50
2019,06,25,15,26,21.50
2019,06,25,15,27,21.50
2019,06,25,15,28,21.50
2019,06,25,15,29,21.60
2019,06,25,15,30,21.60
2019,06,25,15,31,21.60
2019,06,25,15,32,21.70
2019,06,25,15,33,21.70
2019,06,25,15,34,21.70
2019,06,25,15,35,21.70
2019,06,25,15,36,21.70
2019,06,25,15,37,21.60
2019,06,25,15,38,21.60
2019,06,25,15,39,21.50
2019,06,25,15,40,21.50
2019,06,25,15,41,21.50
2019,06,25,15,42,21.50
2019,06,25,15,43,21.50
2019,06,25,15,44,21.60
2019,06,25,15,45,21.60
2019,06,25,15,46,21.60
2019,06,25,15,47,21.70
2019,06,25,15,48,21.70
2019,06,25,15,49,21.60
2019,06,25,15,50,21.60
2019,06,25,15,51,21.60
2019,06,25,15,52,21.50
2019,06,25,15,53,21.40
2019,06,25,15,54,21.30
2019,06,25,15,55,21.20
2019,06,25,15,56,21.10
2019,06,25,15,57,21.00
2019,06,25,15,58,20.90
2019,06,25,15,59,20.90
2019,06,25,16,00,20.80
2019,06,25,16,01,20.80
2019,06,25,16,02,20.80
2019,06,25,16,03,20.70
2019,06,25,16,04,20.70
2019,06,25,16,05,20.60
2019,06,25,16,06,20.50
2019,06,25,16,07,20.40
2019,06,25,16,08,20.30
2019,06,25,16,09,20.20
2019,06,25,16,10,20.10
2019,06,25,16,11,20.00
2019,06,25,16,12,19.90
2019,06,25,16,13,19.80
2019,06,25,16,14,19.70
2019,06,25,16,15,19.60
2019,06,25,16,16,19.60
2019,06,25,16,17,19.50
2019,06,25,16,18,19.40
2019,06,25,16,19,19.40
2019,06,25,16,20,19.40
2019,06,25,16,21,19.30
2019,06,25,16,22,19.30
2019,06,25,16,23,19.30
2019,06,25,16,24,19.30
2019,06,25,16,25,19.30
2019,06,25,16,26,19.30
2019,06,25,16,27,19.30
2019,06,25,16,28,19.30
2019,06,25,16,29,19.30
2019,06,25,16,30,19.20
2019,06,25,16,31,19.20
2019,06,25,16,32,19.20
2019,06,25,16,33,19.20
2019,06,25,16,34,19.20
2019,06,25,16,35,19.20
2019,06,25,16,36,19.20
2019,06,25,16,37,19.20
2019,06,25,16,38,19.20
2019,06,25,16,39,19.20
2019,06,25,16,40,19.20
2019,06,25,16,41,19.30
2019,06,25,16,42,19.40
2019,06,25,16,43,19.50
2019,06,25,16,44,19.60
2019,06,25,16,45,19.60
2019,06,25,16,46,19.70
2019,06,25,16,47,19.80
2019,06,25,16,48,19.80
2019,06,25,16,49,19.80
2019,06,25,16,50,19.90
2019,06,25,16,51,19.90
2019,06,25,16,52,19.90
2019,06,25,16,53,20.00
2019,06,25,16,54,20.10
2019,06,25,16,55,20.20
2019,06,25,16,56,20.30
2019,06,25,16,57,20.40
2019,06,25,16,58,20.50
2019,06,25,16,59,20.50
2019,06,25,17,00,20.60
2019,06,25,17,01,20.70
2019,06,25,17,02,20.80
2019,06,25,17,03,20.80
2019,06,25,17,04,20.70
2019,06,25,17,05,20.70
2019,06,25,17,06,20.60
2019,06,25,17,07,20.60
2019,06,25,17,08,20.50
2019,06,25,17,09,20.50
2019,06,25,17,10,20.50
2019,06,25,17,11,20.50
2019,06,25,17,12,20.50
2019,06,25,17,13,20.50
2019,06,25,17,14,20.40
2019,06,25,17,15,20.40
2019,06,25,17,16,20.50
2019,06,25,17,17,20.50
2019,06,25,17,18,20.50
2019,06,25,17,19,20.60
2019,06,25,17,20,20.70
2019,06,25,17,21,20.80
2019,06,25,17,22,20.80
2019,06,25,17,23,20.90
2019,06,25,17,24,20.80
2019,06,25,17,25,20.80
2019,06,25,17,26,20.80
2019,06,25,17,27,20.80
2019,06,25,17,28,20.80
2019,06,25,17,29,20.80
2019,06,25,17,30,20.80
2019,06,25,17,31,20.80
2019,06,25,17,32,20.80